Regional Weather Roundup
Issued by NWS Albany, NY

Current Version | Previous Version | Graphics & Text | Print | Product List | Glossary Off
Versions: 1 2 3 4 5 6 7 8 9 10 11 12 13 14 15 16 17 18 19 20 21 22 23 24 25 26 27 28 29 30 31 32 33 34 35 36 37 38 39 40 41 42 43 44 45 46 47 48 49 50

000
ASUS41 KALY 091510
RWRALY

NEW YORK STATE HOURLY WEATHER ROUNDUP
NATIONAL WEATHER SERVICE ALBANY NY
1100 AM EDT WED JUL 09 2014

NOTE: "FAIR" INDICATES FEW OR NO CLOUDS BELOW 12,000 FEET WITH NO
SIGNIFICANT WEATHER AND/OR NO OBSTRUCTIONS TO VISIBILITY.

NYZ032-033-038>043-046>054-057>066-NYZ062>081-091600-
EAST


CITY           SKY/WX    TMP DP  RH WIND       PRES   REMARKS
ALBANY         PTSUNNY   79  58  48 SW10      29.85R
GLENS FALLS    CLOUDY    74  61  63 SW9       29.83R
POUGHKEEPSIE   MOSUNNY   79  63  57 SW8       29.86F
NEWBURGH       MOSUNNY   77  66  69 SW9       29.89F
MONTGOMERY     MOSUNNY   79  67  66 SW12      29.88S
WHITE PLAINS   PTSUNNY   80  63  55 W6        29.90R
ISLIP          PTSUNNY   84  65  52 VRB5      29.88R
NEW YORK CITY  PTSUNNY   83  60  45 SW8       29.89R
CENTRAL PARK   MOSUNNY   81  61  50 CALM      29.92R
$$

NYZ005>009-017-018-044>046-055-056-091600-
CENTRAL


CITY           SKY/WX    TMP DP  RH WIND       PRES   REMARKS
FULTON         PTSUNNY   72  62  71 W8        29.83R
SYRACUSE       PTSUNNY   77  62  59 W13       29.81S
ROME           MOSUNNY   74  60  61 SW13G18   29.83S
ELMIRA         MOSUNNY   77  62  59 W10       29.86R
BINGHAMTON     MOSUNNY   75  62  64 SW12G21   29.89R
$$

NYZ026>034-041>043-091600-
NORTH


CITY           SKY/WX    TMP DP  RH WIND       PRES   REMARKS
WATERTOWN      CLOUDY    67  57  70 SW10G21   29.82R
FORT DRUM      NOT AVBL
MASSENA        CLOUDY    67  57  70 W13G24    29.77R
SARANAC LAKE   PTSUNNY   65  55  70 SW12      29.81R
PLATTSBURGH    MOSUNNY   75  55  49 SW12G23   29.76R
$$

NYZ001>004-010>016-019>021-091600-
WEST


CITY           SKY/WX    TMP DP  RH WIND       PRES   REMARKS
NIAGARA FALLS  CLOUDY    66  58  75 N9        29.85R
BUFFALO        PTSUNNY   70  58  65 SW14      29.84R
DUNKIRK        PTSUNNY   69  58  67 W9G18     29.87R
JAMESTOWN      CLOUDY    64  61  88 W6        29.90R
WELLSVILLE     PTSUNNY   70  57  63 SW14G22   29.93R
ROCHESTER      CLOUDY    71  60  68 W12       29.84R
PENN YAN       MOSUNNY   74  59  59 W20G25    29.85R
$$

             KEY
       WCI = WIND CHILL INDEX
       VSB = VISIBILITY
       HX  = HEAT INDEX
$$


USA.gov is the U.S. government's official web portal to all federal, state and local government web resources and services.